Regional Weather Roundup
Issued by NWS

Home | Current Version | Previous Version | Text Only | Print | Product List | Glossary On
Versions: 1 2 3 4 5 6 7 8 9 10 11 12 13 14 15 16 17 18 19 20 21 22 23 24 25 26 27 28 29 30 31 32 33 34 35 36 37 38 39 40 41 42 43 44 45 46 47 48 49 50
406
ASCA44 KEWX 061220
RWRMX

LATIN AMERICA AND CARIBBEAN REGIONAL WEATHER ROUNDUP
NATIONAL WEATHER SERVICE AUSTIN/SAN ANTONIO TX
600 AM CST SAT FEB 06 2016

NOTE: "FAIR" INDICATED FEW OR NO CLOUDS BELOW 12,000 FEET WITH NO
SIGNIFICANT WEATHER AND/OR OBSTRUCTIONS TO VISIBILITY.

BAJA CALIFORNIA

CITY           SKY/WX    TMP DP  RH WIND       PRES   REMARKS
TIJUANA        CLEAR     57  27  30 E6        30.27R

NORTHWESTERN MEXICO

CITY           SKY/WX    TMP DP  RH WIND       PRES   REMARKS
CULIACAN       CLEAR     55  52  88 CALM      30.02

NORTHEASTERN MEXICO

CITY           SKY/WX    TMP DP  RH WIND       PRES   REMARKS
CHIHUAHUA      CLEAR     18  -2  41 S5        30.48  WCI  11
MONTERREY      CLEAR     46  36  66 NW6       30.39R WCI  43
NUEVO LAREDO   CLEAR     43  36  75 CALM      30.41
TORREON        CLEAR     48   9  20 CALM      30.43

WESTERN MEXICO

CITY           SKY/WX    TMP DP  RH WIND       PRES   REMARKS
COLIMA         CLEAR     68  57  68 N12       30.04
DEL BAJIO      CLEAR     41  27  56 CALM      30.32R
GUADALAJARA    MOCLDY    45  39  81 CALM      30.25
MAZATLAN       CLEAR     52  50  93 CALM      29.99S
P. VALLARTA    CLEAR     63  61  94 NE7       29.97F
ZACATECAS      CLEAR     32  10  40 NE9       30.41R WCI  24

CENTRAL MEXICO

CITY           SKY/WX    TMP DP  RH WIND       PRES   REMARKS
MEXICO CITY    CLEAR     46  34  61 E8        30.35R WCI  42
MORELIA        CLEAR     37  34  87 CALM      30.28
S. LUIS POTOSI CLEAR     36  34  93 CALM      30.36R
TOLUCA         CLEAR     36  32  87 CALM      30.40S

SOUTHERN MEXICO

CITY           SKY/WX    TMP DP  RH WIND       PRES   REMARKS
ACAPULCO       CLEAR     75  72  88 N2        29.90R
B. DE HUATULCO   N/A    N/A N/A N/A MISG        N/A
OAXACA         CLEAR     43  39  87 S3        30.31
VERACRUZ       MOCLDY    63  57  82 NW3       30.21

YUCATAN PENINSULA

CITY           SKY/WX    TMP DP  RH WIND       PRES   REMARKS
CAMPECHE       DRIZZLE   66  66 100 N12       30.10R
CANCUN         CLOUDY    72  64  78 E6        30.09R
CHETUMAL       LGT RAIN  68  66  94 N10       30.05
CD. DEL CARMEN CLOUDY    70  64  83 N12       30.12
COZUMEL        CLOUDY    68  64  88 NE12      30.07S
MERIDA         CLOUDY    68  66  94 CALM      30.12R
TAPACHULA      CLEAR     75  70  83 CALM      29.93R
TUX. GUTIERREZ MOCLDY    63  55  77 NW9       30.14
VILLAHERMOSA   CLOUDY    70  66  88 CALM      30.17R FOG

CENTRAL AMERICA

CITY           SKY/WX    TMP DP  RH WIND       PRES   REMARKS
BELIZE CITY    LGT RAIN  64  64 100 W7        30.06R
MANAGUA        MOSUNNY   73  66  78 E12       29.86S

CARIBBEAN

CITY           SKY/WX    TMP DP  RH WIND       PRES   REMARKS
ARUBA          MOSUNNY   81  72  74 E17       29.94S
CURACAO        MOSUNNY   79  73  83 E13       30.00R
KINGSTON       MOCLDY    75  66  73 NW7       29.97R
NASSAU         PTCLDY    72  68  88 NE6       30.08S
SAN JUAN       MOSUNNY   73  68  83 CALM      30.06R
SANTO DOMINGO  MOSUNNY   68  68 100 NE5       30.00S
ST. CROIX      MOSUNNY   73  66  78 NE5       30.07R
ST. KITTS      MOSUNNY   79  73  83 E5        30.06S
ST. MAARTEN    MOSUNNY   81  72  74 VRB3      30.09R
ST. THOMAS     SUNNY     79  70  73 SE9       30.06R

$$





USA.gov is the U.S. government's official web portal to all federal, state and local government web resources and services.